Preview of NWS' New Version of Forecast
This preview is not operational and should not be used for support decisions.

Regional Weather Roundup (RWR)

Issued by National Weather Service (NWS)

                            
000
ASUS45 KBOI 181610
RWRID 

IDAHO REGIONAL WEATHER ROUNDUP
NATIONAL WEATHER SERVICE BOISE ID
1000 AM MDT THU APR 18 2019

NOTE: "FAIR" INDICATES FEW OR NO CLOUDS BELOW 12000 FEET
WITH NO SIGNIFICANT WEATHER AND/OR OBSTRUCTIONS TO VISIBILITY

IDZ012-014-181700-
SOUTHWEST IDAHO

  
CITY           SKY/WX    TMP DP  RH WIND       PRES   REMARKS
BOISE          SUNNY     55  38  52 CALM      30.34S                  
CALDWELL       SUNNY     50  41  71 CALM      30.35S                  
MOUNTAIN HOME  SUNNY     53  38  57 NW6       30.34S                  
$$

IDZ016-017-181700-
SOUTHCENTRAL IDAHO

  
CITY           SKY/WX    TMP DP  RH WIND       PRES   REMARKS
BURLEY         SUNNY     55  35  47 W9        30.35S                  
JEROME         SUNNY     51  39  63 W6        30.36S                  
TWIN FALLS     SUNNY     57  37  47 W13       30.36S                  
$$

IDZ019>023-181700-
SOUTHEAST IDAHO

  
CITY           SKY/WX    TMP DP  RH WIND       PRES   REMARKS
IDAHO FALLS    SUNNY     46  36  68 S10G20    30.37S                  
POCATELLO      SUNNY     52  36  54 SW13      30.38R                  
REXBURG        SUNNY     47  38  71 S7        30.37S                  
$$

IDZ006-010-011-018-031-032-181700-
CENTRAL IDAHO MOUNTAINS

  
CITY           SKY/WX    TMP DP  RH WIND       PRES   REMARKS
MCCALL         SUNNY     35  30  82 CALM      30.34F                  
HAILEY         SUNNY     48  25  40 NW5       30.38S                  
STANLEY          N/A     31  22  69 N5        30.41F WCI  26          
SALMON         SUNNY     44  31  60 CALM      30.38F                  
CHALLIS        SUNNY     48  28  46 NE3       30.36F                  
$$

IDZ002-004-006-007-026-181700-
NORTHERN IDAHO

  
CITY           SKY/WX    TMP DP  RH WIND       PRES   REMARKS
LEWISTON       MOSUNNY   54  42  64 NE7       30.29F                  
LOWELL           N/A     48  40  73 N3        30.38                   
COEUR D'ALENE  PTSUNNY   51  40  65 S10       30.28S                  
MULLAN PASS    MOSUNNY   40  28  62 SW5       30.27F                  
$$